• In Netherlands
  • List of Countries
  • For 7 days
  • Water Temperature
  • Satellite Maps
  • Weather Map
  • Weather Widgets
  • user-avatar
    Login

    Hourly Weather Rangpur

    Today, 18 November, Saturday

    Time Temperature Precipitation Wind Pressure Humidity
    00:00 +24°C° 0 mm 2 mps 756 mmHg 79%
    01:00 +24°C° 0 mm 2 mps 755 mmHg 79%
    02:00 +23°C° 0 mm 2 mps 755 mmHg 79%
    03:00 +23°C° 0 mm 2 mps 755 mmHg 78%
    04:00 +23°C° 0 mm 2 mps 755 mmHg 78%
    05:00 +21°C° 0 mm 2 mps 755 mmHg 78%
    06:00 +21°C° 0 mm 2 mps 755 mmHg 78%
    07:00 +23°C° 0 mm 2 mps 756 mmHg 74%
    08:00 +25°C° 0 mm 3 mps 756 mmHg 71%
    09:00 +26°C° 0 mm 3 mps 756 mmHg 68%
    10:00 +27°C° 0 mm 3 mps 756 mmHg 65%
    11:00 +29°C° 0 mm 2 mps 756 mmHg 61%
    12:00 +30°C° 0 mm 2 mps 756 mmHg 58%
    13:00 +30°C° 0 mm 2 mps 755 mmHg 56%
    14:00 +31°C° 0 mm 1 mps 754 mmHg 54%
    15:00 +31°C° 0 mm 1 mps 754 mmHg 51%
    16:00 +30°C° 0 mm 1 mps 754 mmHg 55%
    17:00 +28°C° 0 mm 1 mps 754 mmHg 59%
    18:00 +27°C° 0 mm 1 mps 754 mmHg 63%
    19:00 +27°C° 0 mm 1 mps 755 mmHg 65%
    20:00 +26°C° 0 mm 1 mps 755 mmHg 67%
    21:00 +26°C° 0 mm 1 mps 756 mmHg 69%
    22:00 +25°C° 0 mm 1 mps 756 mmHg 71%
    23:00 +25°C° 0 mm 1 mps 756 mmHg 73%

    Tomorrow, 19 November, Sunday

    Time Temperature Precipitation Wind Pressure Humidity
    00:00 +24°C° 0 mm 1 mps 755 mmHg 75%
    01:00 +24°C° 0 mm 1 mps 755 mmHg 77%
    02:00 +24°C° 0 mm 1 mps 755 mmHg 79%
    03:00 +23°C° 0 mm 1 mps 754 mmHg 81%
    04:00 +23°C° 0 mm 1 mps 755 mmHg 82%
    05:00 +21°C° 0 mm 2 mps 755 mmHg 83%
    06:00 +21°C° 0 mm 2 mps 755 mmHg 84%
    07:00 +24°C° 0 mm 2 mps 756 mmHg 79%
    08:00 +25°C° 0 mm 2 mps 756 mmHg 75%
    09:00 +26°C° 0 mm 2 mps 757 mmHg 70%
    10:00 +27°C° 0 mm 2 mps 757 mmHg 64%
    11:00 +29°C° 0 mm 2 mps 756 mmHg 59%
    12:00 +30°C° 0 mm 1 mps 756 mmHg 53%
    13:00 +30°C° 0 mm 2 mps 755 mmHg 51%
    14:00 +31°C° 0 mm 2 mps 755 mmHg 48%
    15:00 +31°C° 0 mm 2 mps 754 mmHg 46%
    16:00 +30°C° 0 mm 2 mps 754 mmHg 50%
    17:00 +28°C° 0 mm 1 mps 754 mmHg 53%
    18:00 +27°C° 0 mm 1 mps 754 mmHg 57%
    19:00 +26°C° 0 mm 1 mps 755 mmHg 59%
    20:00 +26°C° 0 mm 1 mps 755 mmHg 61%
    21:00 +25°C° 0 mm 1 mps 756 mmHg 63%
    22:00 +25°C° 0 mm 1 mps 756 mmHg 65%
    23:00 +24°C° 0 mm 1 mps 756 mmHg 67%

    Day after tomorrow, 20 November, Monday

    Time Temperature Precipitation Wind Pressure Humidity
    00:00 +24°C° 0 mm 1 mps 756 mmHg 70%
    01:00 +23°C° 0 mm 1 mps 755 mmHg 72%
    02:00 +23°C° 0 mm 1 mps 755 mmHg 75%
    03:00 +23°C° 0 mm 1 mps 755 mmHg 77%
    04:00 +22°C° 0 mm 1 mps 755 mmHg 79%
    05:00 +22°C° 0 mm 1 mps 755 mmHg 81%
    06:00 +22°C° 0 mm 1 mps 755 mmHg 82%
    07:00 +23°C° 0 mm 2 mps 756 mmHg 78%
    08:00 +24°C° 0 mm 2 mps 757 mmHg 73%
    09:00 +26°C° 0 mm 2 mps 758 mmHg 68%
    10:00 +27°C° 0 mm 2 mps 757 mmHg 63%
    11:00 +28°C° 0 mm 2 mps 757 mmHg 58%
    12:00 +30°C° 0 mm 1 mps 756 mmHg 53%
    13:00 +30°C° 0 mm 2 mps 756 mmHg 50%
    14:00 +30°C° 0 mm 2 mps 755 mmHg 47%
    15:00 +30°C° 0 mm 2 mps 754 mmHg 44%
    16:00 +29°C° 0 mm 2 mps 754 mmHg 48%
    17:00 +28°C° 0 mm 1 mps 754 mmHg 52%
    18:00 +26°C° 0 mm 1 mps 754 mmHg 56%
    19:00 +25°C° 0 mm 1 mps 755 mmHg 57%
    20:00 +25°C° 0 mm 1 mps 755 mmHg 58%
    21:00 +24°C° 0 mm 1 mps 756 mmHg 60%
    22:00 +24°C° 0 mm 1 mps 756 mmHg 61%
    23:00 +23°C° 0 mm 1 mps 756 mmHg 63%

    21 November, Tuesday

    Time Temperature Precipitation Wind Pressure Humidity
    00:00 +23°C° 0 mm 1 mps 756 mmHg 64%
    01:00 +23°C° 0 mm 1 mps 755 mmHg 66%
    02:00 +22°C° 0 mm 1 mps 755 mmHg 69%
    03:00 +22°C° 0 mm 1 mps 755 mmHg 71%
    04:00 +21°C° 0 mm 1 mps 755 mmHg 72%
    05:00 +21°C° 0 mm 1 mps 756 mmHg 74%
    06:00 +21°C° 0 mm 1 mps 756 mmHg 76%
    07:00 +22°C° 0 mm 1 mps 756 mmHg 72%
    08:00 +23°C° 0 mm 2 mps 757 mmHg 68%
    09:00 +25°C° 0 mm 2 mps 758 mmHg 64%
    10:00 +26°C° 0 mm 2 mps 757 mmHg 59%
    11:00 +27°C° 0 mm 2 mps 757 mmHg 54%
    12:00 +29°C° 0 mm 2 mps 756 mmHg 49%
    13:00 +29°C° 0 mm 2 mps 755 mmHg 47%
    14:00 +29°C° 0 mm 2 mps 755 mmHg 44%
    15:00 +29°C° 0 mm 2 mps 754 mmHg 42%
    16:00 +28°C° 0 mm 2 mps 754 mmHg 45%
    17:00 +26°C° 0 mm 2 mps 754 mmHg 49%
    18:00 +25°C° 0 mm 2 mps 754 mmHg 52%
    19:00 +24°C° 0 mm 2 mps 755 mmHg 52%
    20:00 +23°C° 0 mm 2 mps 755 mmHg 51%
    21:00 +23°C° 0 mm 2 mps 756 mmHg 51%
    22:00 +21°C° 0 mm 2 mps 755 mmHg 51%
    23:00 +21°C° 0 mm 2 mps 755 mmHg 52%

    22 November, Wednesday

    Time Temperature Precipitation Wind Pressure Humidity
    00:00 +20°C° 0 mm 2 mps 755 mmHg 53%
    01:00 +20°C° 0 mm 2 mps 755 mmHg 57%
    02:00 +19°C° 0 mm 2 mps 755 mmHg 61%
    03:00 +19°C° 0 mm 2 mps 754 mmHg 65%
    04:00 +19°C° 0 mm 2 mps 755 mmHg 69%
    05:00 +20°C° 0 mm 1 mps 755 mmHg 73%
    06:00 +20°C° 0 mm 1 mps 755 mmHg 77%
    07:00 +20°C° 0 mm 2 mps 756 mmHg 74%
    08:00 +21°C° 0 mm 2 mps 756 mmHg 70%
    09:00 +24°C° 0 mm 2 mps 757 mmHg 67%
    10:00 +25°C° 0 mm 2 mps 756 mmHg 62%
    11:00 +26°C° 0 mm 2 mps 756 mmHg 58%
    12:00 +28°C° 0 mm 2 mps 755 mmHg 53%
    13:00 +28°C° 0 mm 2 mps 755 mmHg 51%
    14:00 +28°C° 0 mm 2 mps 754 mmHg 49%
    15:00 +29°C° 0 mm 1 mps 754 mmHg 47%
    16:00 +27°C° 0 mm 1 mps 754 mmHg 50%
    17:00 +26°C° 0 mm 1 mps 754 mmHg 54%
    18:00 +25°C° 0 mm 1 mps 754 mmHg 57%
    19:00 +24°C° 0 mm 1 mps 755 mmHg 58%
    20:00 +23°C° 0 mm 1 mps 755 mmHg 59%
    21:00 +23°C° 0 mm 1 mps 755 mmHg 60%
    22:00 +22°C° 0 mm 1 mps 755 mmHg 60%
    23:00 +22°C° 0 mm 1 mps 755 mmHg 61%

    23 November, Thursday

    Time Temperature Precipitation Wind Pressure Humidity
    00:00 +20°C° 0 mm 2 mps 755 mmHg 62%
    01:00 +20°C° 0 mm 2 mps 755 mmHg 64%
    02:00 +19°C° 0 mm 2 mps 755 mmHg 67%
    03:00 +20°C° 0 mm 1 mps 755 mmHg 70%
    04:00 +19°C° 0 mm 2 mps 755 mmHg 72%
    05:00 +19°C° 0 mm 2 mps 756 mmHg 74%
    06:00 +18°C° 0 mm 2 mps 756 mmHg 76%
    07:00 +20°C° 0 mm 2 mps 756 mmHg 71%
    08:00 +21°C° 0 mm 2 mps 757 mmHg 67%
    09:00 +22°C° 0 mm 3 mps 757 mmHg 62%
    10:00 +25°C° 0 mm 3 mps 757 mmHg 57%
    11:00 +26°C° 0 mm 3 mps 756 mmHg 52%
    12:00 +28°C° 0 mm 3 mps 756 mmHg 47%
    13:00 +28°C° 0 mm 2 mps 755 mmHg 45%
    14:00 +28°C° 0 mm 2 mps 755 mmHg 44%
    15:00 +28°C° 0 mm 2 mps 754 mmHg 43%
    16:00 +27°C° 0 mm 2 mps 755 mmHg 47%
    17:00 +25°C° 0 mm 1 mps 755 mmHg 51%
    18:00 +24°C° 0 mm 1 mps 755 mmHg 55%
    19:00 +23°C° 0 mm 1 mps 755 mmHg 56%
    20:00 +23°C° 0 mm 1 mps 756 mmHg 58%
    21:00 +22°C° 0 mm 1 mps 756 mmHg 60%
    22:00 +22°C° 0 mm 1 mps 756 mmHg 60%
    23:00 +21°C° 0 mm 1 mps 756 mmHg 61%
    Show more